Location: Caltech
(34.1382°N, 118.1253°W)
Time: 20:32:05
(UTC-08:00)

Uosat F - Visible Passes

Search period start: 22 January 2017 00:00
Search period end: 01 February 2017 00:00
Orbit: 750 x 761 km, 98.8° (Epoch: 21 January)

Date Brightness Start Highest point End Pass type
(mag) Time Alt. Az. Time Alt. Az. Time Alt. Az.
22 Jan 14.3 05:09:41 10° ENE 05:12:15 14° E 05:14:48 10° SE visible
22 Jan 11.8 17:55:41 10° S 18:00:35 58° W 18:05:31 10° NNW visible
23 Jan 11.8 06:06:53 10° NNE 06:11:51 58° ESE 06:16:49 10° S visible
23 Jan 14.3 18:57:45 10° WSW 19:00:12 14° W 19:02:39 10° WNW visible
24 Jan 13.7 05:28:19 10° NE 05:32:15 22° E 05:36:09 10° SSE visible
24 Jan 12.8 18:15:55 10° SSW 18:20:28 35° W 18:25:04 10° NNW visible
25 Jan 11.1 06:26:38 10° NNE 06:31:43 87° WNW 06:36:45 10° SSW visible
25 Jan 11.1 17:35:58 10° SSE 17:40:58 87° ENE 17:45:59 10° NNW visible
26 Jan 12.9 05:47:34 10° NNE 05:52:12 36° E 05:56:48 10° SSE visible
26 Jan 13.7 18:36:34 10° SSW 18:40:25 22° W 18:44:18 10° NW visible
27 Jan 14.3 05:09:58 10° ENE 05:12:29 14° E 05:15:00 10° ESE visible
27 Jan 11.8 17:55:54 10° S 18:00:48 58° WSW 18:05:46 10° NNW visible
28 Jan 11.9 06:07:07 10° NNE 06:12:06 58° ESE 06:17:03 10° S visible
28 Jan 14.3 18:57:55 10° WSW 19:00:25 14° W 19:02:57 10° WNW visible
29 Jan 13.7 05:28:35 10° NE 05:32:29 22° E 05:36:22 10° SSE visible
29 Jan 12.8 18:16:08 10° SSW 18:20:42 36° W 18:25:18 10° NNW visible
31 Jan 12.9 05:47:49 10° NNE 05:52:26 35° E 05:57:01 10° SSE visible
31 Jan 13.7 18:36:46 10° SSW 18:40:39 23° W 18:44:34 10° NW visible
